Find Starlink 33863

NORAD ID: 63864 Int'l Des: 2025-094 Owner: SPXS Country: US Constellation: starlink operational
LEOCIRCULAR

当前视图

正在加载3D地球...

About Starlink 33863

Starlink 33863 (NORAD 63864) is a starlink constellation satellite (v2 mini) launched May 10, 2025 by SPXS of US. It operates in LEO, CIRCULAR orbit with a mass of 575.00 kg.

关于 Starlink 33863

正在加载描述...

即将过境

Passes for default location (London). Set your location on the main map for personalized predictions.

高度历史

Loading altitude history...

两行轨道根数

1 63864U 25094A 26194.63510224 .00000502 00000-0 49869-4 0 9999
2 63864 70.0008 277.1082 0003721 267.6590 92.4143 14.98327716 66068
Epoch: Jul 13, 2026 • Age: 20 hours

当前状态

高度 585.2 km
远地点 / 近地点 N/A
速度 7.57 km/s
星下点 64.94°N, 128.54°W
发射日期 May 10, 2025
运行时间 1.1 years
类型 internet

技术详情

分类 Payload
质量 575.00 kg
干质量 530.00 kg
总质量 575.00 kg
长度 0.30 m
直径 4.10 m
跨度 29.00 m
形状 Box + pan
制造商 SPXS
平台类型 Starlink V2MO
阶段状态 In Orbit
所有者/国家 SPXS/US

Most Searched